User: anonymous
Location: Unspecified
(0.0000°N, 0.0000°E)
Time: 11:26:39
(UTC+02:00)
Language:

Cosmos 1703 Rocket - Orbit

View from above orbital plane
View from above orbital plane
View from above satellite
View from above satellite

Ground track
Ground track

The orbit data is extracted from the following two-line orbital elements,

1 16263U 85108B   14211.07960874  .00000258  00000-0  29155-4 0  7180
2 16263 082.5039 021.9691 0019911 211.4208 288.9949 14.82430567548325
Epoch (UTC): 30 July 2014 01:54:38
Eccentricity: 0.0019911
inclination: 82.5039°
perigee height: 608 km
apogee height: 635 km
right ascension of ascending node: 21.9691°
argument of perigee: 211.4208°
revolutions per day: 14.82430567
mean anomaly at epoch: 288.9949°
orbit number at epoch: 54832

The dashed part of the orbit path shows where the satellite is in the earth's shadow,  

DLR